Time_in_sec,gx,gy,gz
1314275824.10752511,0.00434235,-0.01959273,-0.99979861
1314275824.15645337,0.00426922,-0.01933472,-0.99980395
1314275824.20759153,0.00409830,-0.01963409,-0.99979883
1314275824.25645375,0.00424294,-0.01963991,-0.99979812
1314275824.29646873,0.00391746,-0.01949153,-0.99980235
1314275824.35550523,0.00380297,-0.01918666,-0.99980869
1314275824.40451908,0.00502720,-0.02167812,-0.99975236
1314275824.45552206,0.00495307,-0.02164679,-0.99975341
1314275824.50515938,0.00501781,-0.02171241,-0.99975167
1314275824.55645561,0.00521706,-0.02183833,-0.99974790
1314275824.60531831,0.00516601,-0.02450548,-0.99968635
1314275824.65545058,0.00514281,-0.02449959,-0.99968661
1314275824.70854187,0.00499313,-0.02445920,-0.99968836
1314275824.75550175,0.00492391,-0.02445800,-0.99968873
1314275824.80448556,0.00527637,-0.02432184,-0.99969026
1314275824.85549903,0.00521952,-0.02397066,-0.99969904
1314275824.90749216,0.00489467,-0.02436152,-0.99969123
1314275824.95788169,0.00478835,-0.02428200,-0.99969368
1314275825.00441003,0.00459270,-0.02420496,-0.99969647
1314275825.05953360,0.00417274,-0.02417904,-0.99969894
1314275825.10455823,0.00390378,-0.02369476,-0.99971162
1314275825.15551066,0.00390642,-0.02365849,-0.99971247
1314275825.20447350,0.00366950,-0.02370293,-0.99971231
1314275825.25622702,0.00363827,-0.02368854,-0.99971277
1314275825.30753160,0.00391597,-0.02373106,-0.99971071
1314275825.35646868,0.00359526,-0.02339191,-0.99971991
1314275825.40531206,0.00426788,-0.02283438,-0.99973015
1314275825.45548773,0.00422486,-0.02301434,-0.99972621
1314275825.50443864,0.00401936,-0.02281970,-0.99973152
1314275825.55547142,0.00393322,-0.02283524,-0.99973150
1314275825.60444427,0.00497064,-0.02235915,-0.99973765
1314275825.65547633,0.00494987,-0.02235147,-0.99973792
1314275825.70743155,0.00491303,-0.02225820,-0.99974018
1314275825.75681639,0.00468728,-0.02222026,-0.99974211
1314275825.80420351,0.00475892,-0.02206571,-0.99974520
1314275825.85650444,0.00458561,-0.02182137,-0.99975137
1314275825.90443969,0.00492101,-0.02094549,-0.99976851
1314275825.95650935,0.00476069,-0.02109054,-0.99976624
1314275826.00445676,0.00471851,-0.02108926,-0.99976646
1314275826.05662131,0.00465935,-0.02096766,-0.99976930
1314275826.10400248,0.00381607,-0.01978641,-0.99979695
1314275826.15644717,0.00351908,-0.01996291,-0.99979453
1314275826.20443821,0.00326272,-0.02012047,-0.99979224
1314275826.25596476,0.00327101,-0.01997899,-0.99979505
1314275826.29645276,0.00323697,-0.02007377,-0.99979326
1314275826.35653853,0.00307699,-0.01992639,-0.99979671
1314275826.40847516,0.00198708,-0.01920648,-0.99981356
1314275826.45647264,0.00207080,-0.01920760,-0.99981337
1314275826.50760221,0.00213689,-0.01922836,-0.99981283
1314275826.56045556,0.00225661,-0.01924437,-0.99981226
1314275826.60917449,0.00161015,-0.01903902,-0.99981744
1314275826.65649319,0.00172121,-0.01906205,-0.99981682
1314275826.70780802,0.00160233,-0.01895479,-0.99981906
1314275826.75658059,0.00131883,-0.01892091,-0.99982011
1314275826.80845666,0.00127770,-0.01907648,-0.99981721
1314275826.85650277,0.00107743,-0.01880921,-0.99982251
1314275826.90759444,0.00129906,-0.01967029,-0.99980568
1314275826.95816088,0.00133093,-0.01967438,-0.99980555
1314275827.00774956,0.00129870,-0.01980461,-0.99980303
1314275827.05557060,0.00136250,-0.01983371,-0.99980236
1314275827.10848022,0.00097013,-0.01971093,-0.99980525
1314275827.15861535,0.00077037,-0.01989969,-0.99980168
1314275827.20742846,0.00061666,-0.01981111,-0.99980355
1314275827.25646687,0.00095144,-0.01973112,-0.99980487
1314275827.30833650,0.00080522,-0.02001040,-0.99979945
1314275827.35655785,0.00037212,-0.01967196,-0.99980642
1314275827.40848279,0.00007411,-0.01943063,-0.99981120
1314275827.45554018,0.00004081,-0.01923078,-0.99981507
1314275827.50748062,0.00022413,-0.01943002,-0.99981119
1314275827.55507588,0.00020424,-0.01934956,-0.99981276
1314275827.60844517,-0.00043705,-0.01884541,-0.99982231
1314275827.65648723,-0.00067986,-0.01898396,-0.99981956
1314275827.70450735,-0.00084860,-0.01893471,-0.99982036
1314275827.75653481,-0.00099422,-0.01900054,-0.99981898
1314275827.80622959,-0.00121984,-0.01905205,-0.99981775
1314275827.85552025,-0.00106601,-0.01881924,-0.99982233
1314275827.90442228,-0.00016981,-0.01993975,-0.99980117
1314275827.95550799,-0.00009108,-0.01974023,-0.99980514
1314275828.00784492,0.00002790,-0.02005225,-0.99979893
1314275828.05655193,-0.00001929,-0.01989786,-0.99980202
1314275828.10441256,0.00044522,-0.02099638,-0.99977945
1314275828.15989208,0.00045520,-0.02098990,-0.99977958
1314275828.20429635,0.00039181,-0.02087782,-0.99978196
1314275828.25544906,0.00019596,-0.02083718,-0.99978286
1314275828.29648590,-0.00009667,-0.02089317,-0.99978171
1314275828.35647178,-0.00022206,-0.02080909,-0.99978344
1314275828.40445328,0.00003025,-0.02272126,-0.99974184
1314275828.45645070,-0.00002203,-0.02262548,-0.99974401
1314275828.50426006,0.00012553,-0.02278268,-0.99974043
1314275828.55677700,-0.00011399,-0.02282188,-0.99973954
1314275828.60811615,0.00045666,-0.02418675,-0.99970735
1314275828.65695667,0.00052178,-0.02424390,-0.99970594
1314275828.70750189,0.00036460,-0.02437587,-0.99970280
1314275828.75547147,0.00050757,-0.02449608,-0.99969980
1314275828.79950976,0.00060372,-0.02452235,-0.99969910
1314275828.85648251,0.00053588,-0.02477540,-0.99969290
1314275828.90402079,0.00121705,-0.02520872,-0.99968147
1314275828.95654488,0.00154898,-0.02533268,-0.99967788
1314275829.00448656,0.00167400,-0.02528632,-0.99967885
1314275829.04457879,0.00162222,-0.02522760,-0.99968042
1314275829.10444617,0.00174562,-0.02513280,-0.99968260
1314275829.15544319,0.00171699,-0.02408821,-0.99970836
1314275829.20444417,0.00159403,-0.02408629,-0.99970861
1314275829.25645304,0.00169540,-0.02419457,-0.99970583
1314275829.29660010,0.00194819,-0.02418183,-0.99970568
1314275829.35649657,0.00203371,-0.02413426,-0.99970666
1314275829.40859962,0.00140930,-0.02326324,-0.99972838
1314275829.45553899,0.00132892,-0.02346828,-0.99972370
1314275829.50848031,0.00144381,-0.02327278,-0.99972811
1314275829.54844427,0.00136426,-0.02344019,-0.99972431
1314275829.60844398,0.00122086,-0.02340442,-0.99972533
1314275829.65662265,0.00200832,-0.02269263,-0.99974047
1314275829.70757890,0.00207285,-0.02267516,-0.99974074
1314275829.75821161,0.00215102,-0.02267992,-0.99974046
1314275829.79946208,0.00202820,-0.02275835,-0.99973894
1314275829.85550499,0.00196815,-0.02282914,-0.99973744
1314275829.90750551,0.00291146,-0.02301827,-0.99973081
1314275829.95561600,0.00278502,-0.02302701,-0.99973096
1314275830.00844073,0.00299204,-0.02269947,-0.99973786
1314275830.05605841,0.00303950,-0.02289847,-0.99973318
1314275830.10855913,0.00295143,-0.02305563,-0.99972983
1314275830.15642071,0.00364059,-0.02336712,-0.99972032
1314275830.20756173,0.00356038,-0.02330681,-0.99972202
1314275830.25584674,0.00354128,-0.02306105,-0.99972779
1314275830.29646039,0.00338903,-0.02331792,-0.99972236
1314275830.35560012,0.00338730,-0.02313240,-0.99972667
1314275830.40851784,0.00365937,-0.02374770,-0.99971129
1314275830.45556021,0.00358019,-0.02360070,-0.99971505
1314275830.50751734,0.00359042,-0.02350752,-0.99971721
1314275830.55642867,0.00368890,-0.02371868,-0.99971187
1314275830.60745406,0.00350760,-0.02340599,-0.99971989
1314275830.65641379,0.00410524,-0.02398225,-0.99970396
1314275830.70444131,0.00369522,-0.02399952,-0.99970514
1314275830.75676441,0.00340019,-0.02379598,-0.99971105
1314275830.80446982,0.00359294,-0.02370469,-0.99971255
1314275830.85642624,0.00358592,-0.02382927,-0.99970961
1314275830.90845823,0.00379651,-0.02464972,-0.99968894
1314275830.95643520,0.00373787,-0.02452784,-0.99969216
1314275831.00758219,0.00374843,-0.02449081,-0.99969303
1314275831.05955791,0.00365583,-0.02455664,-0.99969176
1314275831.10446525,0.00331719,-0.02430917,-0.99969899
1314275831.15627241,0.00382915,-0.02533104,-0.99967178
1314275831.20447850,0.00381574,-0.02520427,-0.99967504
1314275831.25641918,0.00424865,-0.02539263,-0.99966853
1314275831.29549670,0.00426302,-0.02564781,-0.99966195
1314275831.36089921,0.00406955,-0.02561325,-0.99966364
1314275831.40415621,0.00402869,-0.02640175,-0.99964330
1314275831.45614243,0.00403017,-0.02620434,-0.99964848
1314275831.50749779,0.00423202,-0.02610529,-0.99965024
1314275831.55552578,0.00415536,-0.02602962,-0.99965254
1314275831.60444522,0.00397948,-0.02601402,-0.99965366
1314275831.65648222,0.00460308,-0.02659721,-0.99963563
1314275831.70428824,0.00476976,-0.02658137,-0.99963527
1314275831.75739145,0.00476108,-0.02656897,-0.99963564
1314275831.79557252,0.00473611,-0.02660635,-0.99963477
1314275831.85614491,0.00450573,-0.02679217,-0.99963087
1314275831.90437102,0.00400170,-0.02685605,-0.99963130
1314275831.95602751,0.00407380,-0.02668607,-0.99963556
1314275832.00448251,0.00417013,-0.02681066,-0.99963183
1314275832.05943060,0.00436201,-0.02685390,-0.99962985
1314275832.10755897,0.00432585,-0.02699851,-0.99962611
1314275832.15644789,0.00380270,-0.02690729,-0.99963070
1314275832.20806837,0.00398797,-0.02675666,-0.99963402
1314275832.25659204,0.00400086,-0.02672756,-0.99963475
1314275832.29693580,0.00398887,-0.02663886,-0.99963716
1314275832.35658550,0.00395948,-0.02670637,-0.99963548
1314275832.40844154,0.00430025,-0.02624584,-0.99964627
1314275832.45585203,0.00427832,-0.02602009,-0.99965226
1314275832.50758290,0.00425288,-0.02578540,-0.99965845
1314275832.55644989,0.00413717,-0.02571301,-0.99966080
1314275832.60798359,0.00408943,-0.02545030,-0.99966772
1314275832.65572643,0.00376886,-0.02598999,-0.99965510
1314275832.70749426,0.00364890,-0.02579461,-0.99966060
1314275832.75556946,0.00346829,-0.02588560,-0.99965890
1314275832.79558158,0.00331413,-0.02568377,-0.99966462
1314275832.85548258,0.00315949,-0.02575890,-0.99966319
1314275832.90756631,0.00453015,-0.02564786,-0.99966077
1314275832.96001434,0.00462427,-0.02563501,-0.99966067
1314275833.00866318,0.00455615,-0.02560085,-0.99966186
1314275833.05646467,0.00448615,-0.02544063,-0.99966627
1314275833.10775828,0.00415695,-0.02525563,-0.99967238
1314275833.15545583,0.00508411,-0.02608953,-0.99964668
1314275833.20844007,0.00501521,-0.02616691,-0.99964501
1314275833.25546789,0.00520175,-0.02632300,-0.99963996
1314275833.29649448,0.00512380,-0.02621240,-0.99964326
1314275833.35718107,0.00506528,-0.02616838,-0.99964472
1314275833.40761209,0.00613989,-0.02803098,-0.99958820
1314275833.45647621,0.00613213,-0.02800099,-0.99958909
1314275833.50849390,0.00635252,-0.02778297,-0.99959379
1314275833.54846263,0.00612847,-0.02784747,-0.99959340
1314275833.60456276,0.00610471,-0.02759003,-0.99960068
1314275833.65544677,0.00672243,-0.02937538,-0.99954584
1314275833.70458031,0.00660480,-0.02928277,-0.99954935
1314275833.75645471,0.00642113,-0.02940410,-0.99954698
1314275833.79556704,0.00643874,-0.02932188,-0.99954928
1314275833.85557699,0.00613796,-0.02928795,-0.99955217
1314275833.90445042,0.00678024,-0.03025644,-0.99951917
1314275833.95647550,0.00704596,-0.03046079,-0.99951113
1314275834.00444484,0.00705099,-0.03032850,-0.99951512
1314275834.04428482,0.00706057,-0.03052960,-0.99950893
1314275834.10752463,0.00703264,-0.03064696,-0.99950553
1314275834.15645313,0.00840181,-0.03096208,-0.99948525
1314275834.20752573,0.00817599,-0.03087218,-0.99948990
1314275834.25650549,0.00833625,-0.03080045,-0.99949079
1314275834.29697919,0.00815158,-0.03104620,-0.99948471
1314275834.35547066,0.00801341,-0.03095948,-0.99948852
1314275834.40423107,0.00884712,-0.03205297,-0.99944701
1314275834.45646858,0.00867526,-0.03207419,-0.99944784
1314275834.50447917,0.00870711,-0.03218148,-0.99944411
1314275834.54457712,0.00860185,-0.03198855,-0.99945122
1314275834.60449147,0.00862750,-0.03177272,-0.99945788
1314275834.65646887,0.00879307,-0.03292580,-0.99941912
1314275834.70447063,0.00859269,-0.03283636,-0.99942380
1314275834.75649095,0.00841541,-0.03279433,-0.99942669
1314275834.79656672,0.00838709,-0.03311321,-0.99941642
1314275834.85547185,0.00825383,-0.03300039,-0.99942126
1314275834.90474463,0.00897468,-0.03406078,-0.99937947
1314275834.95643544,0.00874867,-0.03396061,-0.99938488
1314275835.00452876,0.00869930,-0.03407706,-0.99938135
1314275835.04756379,0.00879410,-0.03412986,-0.99937872
1314275835.10443807,0.00865274,-0.03406905,-0.99938202
1314275835.15647531,0.00946627,-0.03496868,-0.99934358
1314275835.20444775,0.00940913,-0.03457555,-0.99935779
1314275835.25644302,0.00945916,-0.03446281,-0.99936122
1314275835.30860281,0.00929905,-0.03465057,-0.99935623
1314275835.35781670,0.00909030,-0.03458239,-0.99936051
1314275835.40745234,0.00999363,-0.03569889,-0.99931262
1314275835.45591784,0.00990065,-0.03561275,-0.99931662
1314275835.50848627,0.01006803,-0.03586821,-0.99930581
1314275835.54844809,0.00998727,-0.03596562,-0.99930312
1314275835.60844636,0.00996252,-0.03592869,-0.99930470
1314275835.65645695,0.01025913,-0.03642571,-0.99928370
1314275835.70563269,0.01006913,-0.03620730,-0.99929357
1314275835.75644588,0.00992851,-0.03617214,-0.99929625
1314275835.79950213,0.00990780,-0.03605998,-0.99930051
1314275835.85660243,0.00981378,-0.03609073,-0.99930033
1314275835.90479732,0.00964571,-0.03622206,-0.99929721
1314275835.95646262,0.00960264,-0.03602496,-0.99930475
1314275836.00844240,0.00946473,-0.03607650,-0.99930421
1314275836.04458785,0.00945572,-0.03595481,-0.99930868
1314275836.10763168,0.00935624,-0.03590469,-0.99931142
1314275836.15667462,0.00938080,-0.03659512,-0.99928614
1314275836.21000171,0.00922096,-0.03644618,-0.99929308
1314275836.25563121,0.00933390,-0.03665988,-0.99928421
1314275836.29645538,0.00910783,-0.03679442,-0.99928135
1314275836.35542822,0.00898135,-0.03671395,-0.99928546
1314275836.40845966,0.00865585,-0.03736842,-0.99926407
1314275836.45565152,0.00843994,-0.03715864,-0.99927374
1314275836.50858235,0.00860367,-0.03719119,-0.99927113
1314275836.54471684,0.00847501,-0.03714056,-0.99927411
1314275836.60451460,0.00840964,-0.03733677,-0.99926735
1314275836.65554237,0.00886761,-0.03773767,-0.99924833
1314275836.70630145,0.00879821,-0.03751233,-0.99925743
1314275836.75558758,0.00888160,-0.03753894,-0.99925570
1314275836.80446100,0.00892208,-0.03739763,-0.99926063
1314275836.85656595,0.00908284,-0.03747865,-0.99925615
1314275836.90447855,0.01110228,-0.03886750,-0.99918269
1314275836.95643568,0.01123158,-0.03882956,-0.99918272
1314275837.00446010,0.01115554,-0.03883650,-0.99918331
1314275837.04845905,0.01141866,-0.03871819,-0.99918493
1314275837.10449433,0.01156816,-0.03876760,-0.99918129
1314275837.15641570,0.01233355,-0.03946150,-0.99914497
1314275837.20446157,0.01215414,-0.03929179,-0.99915386
1314275837.25644565,0.01209619,-0.03936930,-0.99915151
1314275837.29648018,0.01193632,-0.03924500,-0.99915832
1314275837.35645151,0.01198723,-0.03921315,-0.99915896
1314275837.40760016,0.01059425,-0.03879789,-0.99919092
1314275837.45645952,0.01043675,-0.03882936,-0.99919135
1314275837.50767136,0.01048642,-0.03893469,-0.99918673
1314275837.55556679,0.01042048,-0.03885916,-0.99919036
1314275837.60444355,0.01013949,-0.03896610,-0.99918909
1314275837.65644169,0.00914164,-0.03849411,-0.99921701
1314275837.70419335,0.00888219,-0.03863976,-0.99921373
1314275837.75646067,0.00921199,-0.03834302,-0.99922217
1314275837.80411029,0.00928522,-0.03824189,-0.99922537
1314275837.85957003,0.00921828,-0.03736978,-0.99925899
1314275837.90446544,0.00926038,-0.03731558,-0.99926062
1314275837.95645618,0.00941284,-0.03749868,-0.99925234
1314275838.00445557,0.00935176,-0.03743216,-0.99925541
1314275838.05592585,0.00923199,-0.03756848,-0.99925141
1314275838.10461688,0.00865490,-0.03697893,-0.99927857
1314275838.15791941,0.00851258,-0.03700236,-0.99927892
1314275838.19644046,0.00837947,-0.03718489,-0.99927327
1314275838.25592875,0.00869333,-0.03709424,-0.99927396
1314275838.29647851,0.00872673,-0.03703921,-0.99927571
1314275838.35557365,0.00863870,-0.03708976,-0.99927460
1314275838.40846419,0.00774398,-0.03612515,-0.99931727
1314275838.45548010,0.00815142,-0.03616582,-0.99931256
1314275838.50759387,0.00804458,-0.03595352,-0.99932108
1314275838.55648708,0.00810334,-0.03593453,-0.99932129
1314275838.60858226,0.00807537,-0.03593867,-0.99932137
1314275838.65759158,0.00759546,-0.03614331,-0.99931775
1314275838.70778561,0.00754777,-0.03613324,-0.99931848
1314275838.75556755,0.00737351,-0.03609349,-0.99932122
1314275838.80048919,0.00732326,-0.03625129,-0.99931587
1314275838.85548568,0.00706977,-0.03597566,-0.99932766
1314275838.90858173,0.00689894,-0.03641797,-0.99931283
1314275838.95643497,0.00701333,-0.03626805,-0.99931749
1314275839.00861669,0.00728148,-0.03602162,-0.99932448
1314275839.04794502,0.00731809,-0.03599408,-0.99932521
1314275839.10746336,0.00771163,-0.03611863,-0.99931775
1314275839.15643740,0.00812663,-0.03710042,-0.99927850
1314275839.20842981,0.00827423,-0.03715536,-0.99927525
1314275839.25563717,0.00818925,-0.03701090,-0.99928131
1314275839.30755758,0.00820232,-0.03697690,-0.99928246
1314275839.35798597,0.00807057,-0.03699150,-0.99928299
1314275839.40756655,0.00880674,-0.03701198,-0.99927602
1314275839.45553255,0.00865874,-0.03708542,-0.99927459
1314275839.50451183,0.00853933,-0.03693198,-0.99928130
1314275839.54756927,0.00855030,-0.03699154,-0.99927900
1314275839.60448050,0.00837721,-0.03702482,-0.99927923
1314275839.65665150,0.00828474,-0.03581091,-0.99932424
1314275839.70859003,0.00834297,-0.03576781,-0.99932530
1314275839.75551009,0.00835469,-0.03563364,-0.99933000
1314275839.79690599,0.00847936,-0.03577994,-0.99932372
1314275839.85651731,0.00836574,-0.03569752,-0.99932762
1314275839.90445209,0.01051130,-0.03560897,-0.99931052
1314275839.95645738,0.01050484,-0.03551945,-0.99931377
1314275840.00444746,0.01045077,-0.03552308,-0.99931421
1314275840.04443741,0.01047083,-0.03548215,-0.99931546
1314275840.10438609,0.01036905,-0.03556893,-0.99931343
1314275840.15728450,0.01200700,-0.03665331,-0.99925591
1314275840.20745659,0.01186549,-0.03654445,-0.99926158
1314275840.25645328,0.01185834,-0.03646077,-0.99926473
1314275840.29646850,0.01176506,-0.03656377,-0.99926206
1314275840.35556960,0.01176126,-0.03657046,-0.99926186
1314275840.40456033,0.01135344,-0.03512529,-0.99931842
1314275840.45623446,0.01116883,-0.03505159,-0.99932309
1314275840.50436997,0.01131764,-0.03509560,-0.99931987
1314275840.54441786,0.01108240,-0.03496707,-0.99932702
1314275840.60654235,0.01123563,-0.03491395,-0.99932716
1314275840.65815616,0.00995845,-0.03424671,-0.99936379
1314275840.70446086,0.00996976,-0.03406916,-0.99936975
1314275840.75645447,0.00995749,-0.03408110,-0.99936946
1314275840.80444717,0.01013962,-0.03393132,-0.99937273
1314275840.85646272,0.00949215,-0.03441376,-0.99936259
1314275840.90458465,0.00942084,-0.03448255,-0.99936090
1314275840.96046042,0.00916754,-0.03430742,-0.99936928
1314275841.00841498,0.00905531,-0.03437623,-0.99936794
1314275841.05598307,0.00921103,-0.03438498,-0.99936621
1314275841.10408354,0.00901487,-0.03380544,-0.99938777
1314275841.15655422,0.00909312,-0.03389933,-0.99938389
1314275841.20443010,0.00894193,-0.03387470,-0.99938608
1314275841.25646043,0.00903208,-0.03382477,-0.99938697
1314275841.30758953,0.00910679,-0.03404513,-0.99937880
1314275841.35817957,0.00927897,-0.03392929,-0.99938116
1314275841.41099787,0.00914000,-0.03358610,-0.99939403
1314275841.45593858,0.00914890,-0.03351278,-0.99939641
1314275841.50628734,0.00905548,-0.03340937,-0.99940073
1314275841.55567527,0.00923577,-0.03325963,-0.99940407
1314275841.60844374,0.00934768,-0.03320789,-0.99940475
1314275841.65660119,0.00925583,-0.03331363,-0.99940209
1314275841.70760417,0.00931669,-0.03330612,-0.99940177
1314275841.75643873,0.00914642,-0.03334880,-0.99940192
1314275841.80759883,0.00943232,-0.03326373,-0.99940210
1314275841.85661173,0.01059557,-0.03380829,-0.99937217
1314275841.90844226,0.01033291,-0.03342651,-0.99938776
1314275841.95642829,0.01019396,-0.03318402,-0.99939727
1314275842.00842643,0.01029144,-0.03300503,-0.99940220
